Faro, Portugal

8:16 AM WET on November 21, 2019 (GMT +0000)
Faro

Weather History for LPFR - September, 2019

Change the Weather History Date:

Monday, September 16, 2019

  Actual Average Record
Temperature  
Mean Temperature 72 °F -  
Max Temperature 77 °F 74 °F 85 °F (2018)
Min Temperature 66 °F 60 °F 55 °F (1996)
Cooling Degree Days 6    
Growing Degree Days 22 (Base 50)    
Moisture  
Dew Point 63 °F    
Average Humidity 73    
Maximum Humidity 100    
Minimum Humidity 56    
Precipitation  
Precipitation 0.00 in 0.06 in - ()
Sea Level Pressure  
Sea Level Pressure 30.05 in    
Wind  
Wind Speed 5 mph ()    
Max Wind Speed 9 mph    
Max Gust Speed -    
Visibility 8.3 miles    
Events      
Averages and records for this station are not official NWS values.
T = Trace of Precipitation, MM = Missing Value Source: Averaged Metar Reports

Daily Weather History Graph

Daily Weather History Graph

Search for Another Location

Airport or City:

Astronomy

Sep. 16, 2019 Rise Set
Actual Time 7:14 AM WEST 7:38 PM WEST
Civil Twilight 6:48 AM WEST 8:04 PM WEST
Nautical Twilight 6:17 AM WEST 8:35 PM WEST
Astronomical Twilight 5:46 AM WEST 9:06 PM WEST
Moon 9:09 PM WEST (9/16) 9:06 AM WEST (9/16)
Length of Visible Light 13h 16m
Length of Day
12h 24m
Waning Gibbous, 95% of the Moon is Illuminated
Sep 16
Waning Gibbous
Sep 22
Last Quarter
Sep 28
New
Oct 5
First Quarter
Oct 13
Full

Hourly Weather History & Observations

Time (WEST) Temp. Dew Point Humidity Pressure Visibility Wind Dir Wind Speed Gust Speed Precip Events Conditions
12:00 AM 69 °F 67 °F 91% 30.09 in - West 2.2 mph - -  
12:00 AM 68.0 °F 66.2 °F 94% 30.06 in - West 4.6 mph - N/A   Clear
12:30 AM 68.0 °F 68.0 °F 100% 30.06 in - WSW 3.5 mph - N/A   Clear
1:00 AM 69 °F 67 °F 89% 30.08 in - NW 2.3 mph - -  
1:00 AM 69.8 °F 68.0 °F 94% 30.06 in - West 5.8 mph - N/A   Clear
1:30 AM 68.0 °F 66.2 °F 94% 30.06 in - West 6.9 mph - N/A   Clear
2:30 AM 69.8 °F 59.0 °F 68% 30.04 in - WNW 6.9 mph - N/A   Clear
3:00 AM 69.8 °F 60.8 °F 73% 30.04 in - West 4.6 mph - N/A   Clear
3:30 AM 69.8 °F 59.0 °F 68% 30.04 in - WNW 5.8 mph - N/A   Clear
4:00 AM 70 °F 58 °F 58% 30.06 in 12 mi NNW 4.5 mph - -   Clear
4:00 AM 69.8 °F 59.0 °F 68% 30.04 in - NW 4.6 mph - N/A   Clear
4:30 AM 69.8 °F 57.2 °F 64% 30.04 in - NW 5.8 mph - N/A   Clear
5:00 AM 69 °F 57 °F 57% 30.05 in - North 2.2 mph - -  
5:00 AM 68.0 °F 57.2 °F 68% 30.04 in - NNE 4.6 mph - N/A   Clear
5:30 AM 69.8 °F 57.2 °F 64% 30.04 in - NNE 3.5 mph - N/A   Clear
6:00 AM 67 °F 57 °F 62% 30.06 in - NNW 2.2 mph - -  
6:00 AM 68.0 °F 57.2 °F 68% 30.04 in - NNE 6.9 mph - N/A   Clear
6:30 AM 68.0 °F 57.2 °F 68% 30.04 in - NE 4.6 mph - N/A   Clear
7:00 AM 69 °F 58 °F 60% 30.07 in 12 mi NE 4.5 mph - -   Clear
7:00 AM 69.8 °F 57.2 °F 64% 30.04 in - ENE 4.6 mph - N/A   Clear
7:30 AM 69.8 °F 60.8 °F 73% 30.04 in - NE 5.8 mph - N/A   Clear
8:00 AM 70 °F 63 °F 71% 30.08 in - NE 4.5 mph - -  
8:00 AM 69.8 °F 62.6 °F 78% 30.04 in - NNE 5.8 mph - N/A   Clear
8:30 AM 69.8 °F 62.6 °F 78% 30.06 in - NE 6.9 mph - N/A   Clear
9:00 AM 73.4 °F 64.4 °F 73% 30.06 in - East 6.9 mph - N/A   Clear
9:30 AM 73.4 °F 66.2 °F 78% 30.06 in - ESE 6.9 mph - N/A   Clear
10:00 AM 75 °F 66 °F 66% 30.11 in 11 mi ESE 6.7 mph - -   Clear
10:00 AM 73.4 °F 66.2 °F 78% 30.09 in - ESE 8.1 mph - N/A   Clear
10:30 AM 75.2 °F 66.2 °F 73% 30.09 in - SE 6.9 mph - N/A   Clear
11:00 AM 76 °F 65 °F 61% 30.11 in - SSE 8.9 mph - -  
11:00 AM 75.2 °F 66.2 °F 73% 30.09 in - SE 6.9 mph - N/A   Clear
11:30 AM 75.2 °F 66.2 °F 73% 30.09 in - SSE 8.1 mph - N/A   Clear
12:00 PM 75.2 °F 64.4 °F 69% 30.09 in - SSE 9.2 mph - N/A   Clear
12:30 PM 75.2 °F 64.4 °F 69% 30.09 in - SSE 5.8 mph - N/A   Clear
1:00 PM 77 °F 64 °F 57% 30.10 in 12 mi SSW 6.7 mph - -   Scattered Clouds
1:30 PM 77.0 °F 64.4 °F 65% 30.06 in 6.2 mi South 6.9 mph - N/A   Partly Cloudy
2:00 PM 76 °F 65 °F 60% 30.09 in - South 8.9 mph - -  
2:00 PM 75.2 °F 64.4 °F 69% 30.06 in 6.2 mi South 9.2 mph - N/A   Partly Cloudy
2:30 PM 75.2 °F 64.4 °F 69% 30.06 in 6.2 mi South 8.1 mph - N/A   Partly Cloudy
3:00 PM 75.2 °F 64.4 °F 69% 30.04 in 6.2 mi SSW 8.1 mph - N/A   Partly Cloudy
3:30 PM 75.2 °F 64.4 °F 69% 30.04 in 6.2 mi SW 6.9 mph - N/A   Partly Cloudy
4:00 PM 76 °F 63 °F 56% 30.06 in 12 mi SSW 8.9 mph - -   Scattered Clouds
4:00 PM 75.2 °F 62.6 °F 65% 30.04 in 6.2 mi SSW 8.1 mph - N/A   Partly Cloudy
4:30 PM 75.2 °F 62.6 °F 65% 30.04 in 6.2 mi SSW 9.2 mph - N/A   Partly Cloudy
5:00 PM 75.2 °F 66.2 °F 73% 30.04 in 6.2 mi SW 9.2 mph - N/A   Partly Cloudy
5:30 PM 73.4 °F 68.0 °F 83% 30.04 in 6.2 mi WSW 9.2 mph - N/A   Partly Cloudy
6:00 PM 71.6 °F 66.2 °F 83% 30.01 in 6.2 mi WSW 6.9 mph - N/A   Partly Cloudy
6:30 PM 71.6 °F 64.4 °F 78% 30.01 in 6.2 mi WSW 5.8 mph - N/A   Partly Cloudy
7:00 PM 72 °F 65 °F 72% 30.04 in 12 mi West 6.7 mph - -   Clear
7:00 PM 71.6 °F 64.4 °F 78% 30.01 in - WSW 6.9 mph - N/A   Clear
7:30 PM 71.6 °F 66.2 °F 83% 30.01 in - West 5.8 mph - N/A   Clear
8:00 PM 71.6 °F 66.2 °F 83% 30.01 in - West 3.5 mph - N/A   Clear
8:30 PM 71.6 °F 66.2 °F 83% 30.01 in - West 4.6 mph - N/A   Clear
9:00 PM 73 °F 66 °F 72% 30.04 in - WNW 6.7 mph - -  
9:00 PM 71.6 °F 64.4 °F 78% 30.01 in - West 6.9 mph - N/A   Clear
9:30 PM 71.6 °F 64.4 °F 78% 30.01 in - WNW 6.9 mph - N/A   Clear
10:00 PM 72 °F 65 °F 72% 30.05 in 11 mi WNW 4.5 mph - -   Clear
10:00 PM 71.6 °F 64.4 °F 78% 30.01 in - WNW 5.8 mph - N/A   Clear
10:30 PM 71.6 °F 64.4 °F 78% 30.01 in - WNW 4.6 mph - N/A   Clear
11:00 PM 72 °F 64 °F 69% 30.04 in - WNW 4.5 mph - -  
11:00 PM 71.6 °F 62.6 °F 73% 30.01 in - West 5.8 mph - N/A   Clear
11:30 PM 69.8 °F 62.6 °F 78% 30.01 in - West 3.5 mph - N/A   Clear